User: anonymous   Login
Location: Unspecified
(0.0000°N, 0.0000°E)
Time: 11:41:34
(UTC+00:00)
Language:

Meteor 2-19 - Orbit

View from above orbital plane
View from above orbital plane
View from above satellite
View from above satellite

Ground track
Ground track

The orbit data is extracted from the following two-line orbital elements,

1 20670U 90057A   18017.48149781  .00000025  00000-0  93014-5 0  9994
2 20670  82.5445 202.1346 0017053  75.3594 284.9456 13.84671130392660
Epoch (UTC): 17 January 2018 11:33:21
Eccentricity: 0.0017053
inclination: 82.5445°
perigee height: 935 km
apogee height: 960 km
right ascension of ascending node: 202.1346°
argument of perigee: 75.3594°
revolutions per day: 13.84671130
mean anomaly at epoch: 284.9456°
orbit number at epoch: 39266

The dashed part of the orbit path shows where the satellite is in the earth's shadow,  

DLR